Regional Weather Roundup
Issued by NWS

Home | Current Version | Previous Version | Text Only | Print | Product List | Glossary Off
Versions: 1 2 3 4 5 6 7 8 9 10 11 12 13 14 15 16 17 18 19 20 21 22 23 24 25 26 27 28 29 30 31 32 33 34 35 36 37 38 39 40 41 42 43 44 45 46 47 48 49 50

000
ASUS43 KOAX 080410
RWRNE

WEATHER ROUNDUP FOR NEBRASKA
NATIONAL WEATHER SERVICE OMAHA NE
1000 PM CST SUN FEB 07 2016

NOTES: SATELLITE DATA IS BEING USED TO AUGMENT CLOUD COVER ABOVE
       12000 FEET.
       "FAIR" INDICATES FEW OR NO CLOUDS BELOW 12,000 FEET WITH NO
       SIGNIFICANT WEATHER AND/OR OBSTRUCTIONS TO VISIBILITY.

  * THESE STATIONS DO NOT REPORT WEATHER SUCH AS RAIN...SNOW OR FOG.

NEZ001>004-019>022-054>056-080500-
NEBRASKA PANHANDLE

CITY           SKY/WX    TMP DP  RH WIND       PRES   REMARKS
SCOTTSBLUFF    CLOUDY    26  14  60 NW14      30.37R WCI  14
ALLIANCE       CLEAR     21  12  68 NW20      30.29R WCI   6
CHADRON        CLEAR     29  14  53 NW22G29   30.32R WCI  15
KIMBALL        CLOUDY    26  12  55 NW20G28   30.35R WCI  12
SIDNEY         CLEAR     26  12  55 NW25      30.33R WCI  11
$$

NEZ057>060-069>072-079>082-080500-
SOUTHWEST NEBRASKA

CITY           SKY/WX    TMP DP  RH WIND       PRES   REMARKS
NORTH PLATTE   CLEAR     28  14  55 NW17G25   30.23R WCI  16
IMPERIAL       CLEAR     28  14  55 NW21G31   30.28S WCI  15
LEXINGTON      CLEAR     28  16  59 NW15      30.20S WCI  17
MCCOOK         CLEAR     30  17  58 NW21      30.25R WCI  17
OGALLALA       CLEAR     28  14  57 NW20G26   30.28R WCI  15
$$

NEZ005>010-023>029-035>040-094-080500-
NORTH CENTRAL NEBRASKA

CITY           SKY/WX    TMP DP  RH WIND       PRES   REMARKS
VALENTINE      CLOUDY    32  18  56 NW24G32   30.18R WCI  19
AINSWORTH      CLOUDY    32  18  55 NW20G30   30.17S WCI  21
BROKEN BOW     PTCLDY    33  18  53 NW25G38   30.15R WCI  20
O`NEILL        CLEAR     32  17  53 NW25G35   30.10S WCI  19
ORD            CLEAR     32  17  54 NW26      30.11S WCI  18
THEDFORD       CLEAR     32  16  52 NW23G31   30.20R WCI  19
$$

NEZ041-046>049-061>064-073>077-083>087-080500-
SOUTH CENTRAL NEBRASKA

CITY           SKY/WX    TMP DP  RH WIND       PRES   REMARKS
GRAND ISLAND   CLEAR     33  18  53 NW23G32   30.13R WCI  21
AURORA         CLEAR     33  19  58 NW30G38   30.09F WCI  18
HASTINGS       CLEAR     33  19  56 NW26G37   30.13R WCI  20
HEBRON         CLEAR     36  22  57 NW18G29   30.12R WCI  25
HOLDREGE       CLEAR     31  16  54 NW13      30.18R WCI  21
YORK           CLOUDY    32  23  69 NW26      30.07R WCI  18
$$

NEZ011>018-030>034-042>045-080500-
NORTHEAST NEBRASKA

CITY           SKY/WX    TMP DP  RH WIND       PRES   REMARKS
NORFOLK        CLOUDY    34  19  54 NW32G46   30.01R WCI  20
ALBION         CLEAR     32  17  53 NW25G37   30.06R WCI  19
BLAIR          LGT SNOW  32  28  86 NW22G36   29.98R WCI  19
COLUMBUS *     CLOUDY    34  16  47 NW26      30.05S WCI  21
FREMONT        CLOUDY    32  24  72 NW20G31   30.03S WCI  20
TEKAMAH        LGT SNOW  31  27  85 NW30G39   30.00R FOG     WCI  16
WAYNE          CLOUDY    31  25  80 N23G29    30.00R WCI  17
$$

NEZ050>053-065>068-078-088>093-080500-
SOUTHEAST NEBRASKA

CITY           SKY/WX    TMP DP  RH WIND       PRES   REMARKS
LINCOLN        CLOUDY    36  22  56 N29G45    30.05S WCI  23
OMAHA EPPLEY   LGT SNOW  32  30  92 NW21      29.99R FOG     WCI  20
BEATRICE       CLOUDY    36  25  64 NW30G38   30.05R WCI  23
FALLS CITY     CLOUDY    36  28  73 NW16G22   30.02S WCI  26
NEBRASKA CITY  CLOUDY    34  28  80 NW23G29   30.01S WCI  22
PLATTSMOUTH    CLOUDY    34  25  70 NW35G44   29.97F WCI  19
$$

NEZ044-045-051>053-067-080500-
OMAHA AREA

CITY           SKY/WX    TMP DP  RH WIND       PRES   REMARKS
OMAHA EPPLEY   LGT SNOW  32  30  92 NW21      29.99R FOG     WCI  20
BLAIR          LGT SNOW  32  28  86 NW22G36   29.98R WCI  19
FREMONT        CLOUDY    32  24  72 NW20G31   30.03S WCI  20
MILLARD        CLOUDY    35  25  65 NW31G40   30.00R WCI  22
OFFUTT AFB     FLURRIES  34  26  70 NW31G44   29.98S WCI  21
PLATTSMOUTH    CLOUDY    34  25  70 NW35G44   29.97F WCI  19
WAHOO          CLOUDY    35  24  64 NW25G37   30.02S WCI  22
$$




USA.gov is the U.S. government's official web portal to all federal, state and local government web resources and services.